STARLINK-11606, 63559

Orbit data source: Space-Track

STARLINK-11606, 63559 is a payload satellite owned by SpaceX/Seattle (US) in LEO that was launched on Sun, 13 Apr 2025 UTC via an FALCON 9 launch vehicle from the Air Force Eastern Test Range (AFETR). Payload-class satellites include a variety of spacecraft equipped with specific instruments for various scientific and technological missions. These include communications satellites like Starlink; space stations such as the ISS; scientific satellites like the Hubble; Earth observation satellites from companies like Planet Labs, Umbra, and HawkEye 360; GPS; miniature CubeSats for education and research; and military/defense satellites.

Loading next visibility...
Identifier
63559, 2025-075M
Orbit
LEO
Last TLE update
3 hours ago
Origin
Manufacturer
SpaceX/Seattle
Mission
Operational spacecraft
Bus & Motor
STARLINK V2M, Unknown motor
Mass
730 kg wet, ~700 kg dry
Launch date (UTC)
2025-04-13 (3 weeks ago)
Launch vehicle
FALCON 9
Launch site
Air Force Eastern Test Range (AFETR)
Object type
Payload
Rocket body
Debris
Shape & HBR
Unknown
Radar Cross Section
Large (>1 m²)

Expand to show TLE details & history

TLE from 3 hours ago
0 STARLINK-11606
1 63559U 25075M   25126.25002315 -.01052549  00000-0 -62951-2 0  9994
2 63559  43.0003 208.6753 0001493 279.3274 208.4426 15.79256879  4865
Epoch: 2025-05-06T06:00Z
Definitive object data (Epoch: 2025-05-06T06:00:02Z)
Latitude
32.75373°
Longitude
31.00258°
Altitude
334.443 km
Speed
7.712 km/s
True Right ascension
23h 01m 27s
True Declination
32° 35' 15"
Sunlit
Object was in daylight at TLE epoch
Visualization TLE readout
Latitude
27.14423°
Longitude
-73.22403°
Altitude
334.011 km
Speed
7.712 km/s
Apparent Right ascension
13h 56m 09s
Apparent Declination
-37° 34' 31"
Sunlit
Object is in full shadow
Visualization observer readout
Local Sidereal Time
16:37:48
Azimuth
211.007° SW
Elevation
4.102°
Doppler factor
1
Orbital elements
Apogee altitude
335.536 km
Perigee altitude
333.531 km
Semi-major axis
6,712.671 km
Eccentricity
0.0001493
Inclination
43.0003°
RAAN
208.6753°
Arg. of periapsis
279.3274°
True anomaly
208.43445°
Mean anomaly
208.4426°
Eccentric anomaly
208.43853°
Mean motion
3.94639 °/min
BSTAR
-0.0062951
Orbital period
91.22 mins
Loading maneuver chart data...
Loading SW <> Apogee altitude chart data...
Loading historical data...
Loading historical data...
Loading historical data...
Loading historical data...
Loading historical data...
Loading historical data...
Loading historical data...

STARLINK-11606 Visibility forecast

Observer location: undefined°, undefined°

Span
Click to sort rows by Start time (UTC) header in descending order
Start Az.
Max El. time (UTC)
Max El. Az.
Max El.
End time (UTC)
End Az.
4 mins2025-05-06 11:53:26.227Z298.115° NW2025-05-06 11:55:26.227Z26.774° NE31.669°2025-05-06 11:57:26.227Z72.161° E
4 mins2025-05-06 13:29:26.227Z290.284° WNW2025-05-06 13:30:26.227Z297.361° NW41.805°2025-05-06 13:33:26.227Z107.013° ESE
|